| time (UTC) | temp F | wind direction | speed knots | gust knots | rain 1hr in | rain 24hr in | rain mn in | humidity % | barometer mb |
| 20260507150239 | 58 | 151 | 7.0 | 8.7 | 0.00 | 0.00 | 0.00 | 51 | 1006.4 |
| 20260507145735 | 57 | 165 | 1.7 | 2.6 | 0.00 | 0.00 | 0.00 | 55 | 1006.2 |
| 20260507145232 | 56 | 264 | 3.5 | 6.1 | 0.00 | 0.00 | 0.00 | 56 | 1006.4 |
| 20260507144729 | 57 | 195 | 1.7 | 5.2 | 0.00 | 0.00 | 0.00 | 56 | 1006.3 |
| 20260507144227 | 57 | 122 | 2.6 | 3.5 | 0.00 | 0.00 | 0.00 | 57 | 1006.3 |
| 20260507143723 | 59 | 177 | 0.9 | 5.2 | 0.00 | 0.00 | 0.00 | 55 | 1006.2 |
| 20260507143220 | 58 | 197 | 3.5 | 5.2 | 0.00 | 0.00 | 0.00 | 55 | 1006.3 |
| 20260507142716 | 57 | 198 | 1.7 | 3.5 | 0.00 | 0.00 | 0.00 | 56 | 1006.2 |
| 20260507142213 | 56 | 213 | 0.9 | 3.5 | 0.00 | 0.00 | 0.00 | 59 | 1006.0 |
| 20260507141709 | 55 | 13 | 4.3 | 6.1 | 0.00 | 0.00 | 0.00 | 57 | 1006.4 |
| 20260507141206 | 56 | 270 | 1.7 | 7.8 | 0.00 | 0.00 | 0.00 | 58 | 1006.3 |
| 20260507140702 | 56 | 245 | 2.6 | 6.1 | 0.00 | 0.00 | 0.00 | 56 | 1006.3 |
| 20260507140200 | 55 | 141 | 1.7 | 2.6 | 0.00 | 0.00 | 0.00 | 57 | 1006.3 |
| 20260507135657 | 55 | 172 | 3.5 | 6.1 | 0.00 | 0.00 | 0.00 | 58 | 1006.3 |
| 20260507135154 | 55 | 211 | 3.5 | 7.0 | 0.00 | 0.00 | 0.00 | 61 | 1006.3 |
| 20260507134650 | 55 | 271 | 3.5 | 7.0 | 0.00 | 0.00 | 0.00 | 58 | 1006.2 |
| 20260507134147 | 56 | 247 | 2.6 | 2.6 | 0.00 | 0.00 | 0.00 | 58 | 1006.1 |
| 20260507133643 | 56 | 357 | 1.7 | 7.0 | 0.00 | 0.00 | 0.00 | 56 | 1006.2 |
| 20260507133140 | 55 | 334 | 2.6 | 7.0 | 0.00 | 0.00 | 0.00 | 56 | 1006.4 |
| 20260507132637 | 55 | 287 | 5.2 | 7.8 | 0.00 | 0.00 | 0.00 | 57 | 1006.5 |
| 20260507132133 | 56 | 214 | 0.9 | 6.1 | 0.00 | 0.00 | 0.00 | 59 | 1006.5 |
| 20260507131630 | 56 | 252 | 2.6 | 3.5 | 0.00 | 0.00 | 0.00 | 60 | 1006.4 |
| 20260507131128 | 55 | 101 | 0.0 | 1.7 | 0.00 | 0.00 | 0.00 | 60 | 1006.8 |
| 20260507130624 | 55 | 66 | 1.7 | 2.6 | 0.00 | 0.00 | 0.00 | 59 | 1006.8 |
| 20260507130122 | 55 | 358 | 1.7 | 3.5 | 0.00 | 0.00 | 0.00 | 62 | 1006.6 |
| 20260507125621 | 55 | 298 | 1.7 | 5.2 | 0.00 | 0.00 | 0.00 | 63 | 1006.5 |
| 20260507125118 | 54 | 275 | 3.5 | 5.2 | 0.00 | 0.00 | 0.00 | 65 | 1006.6 |
| 20260507124614 | 54 | 319 | 1.7 | 2.6 | 0.00 | 0.00 | 0.00 | 65 | 1006.6 |
| 20260507124112 | 53 | 55 | 0.0 | 1.7 | 0.00 | 0.00 | 0.00 | 66 | 1006.3 |
| 20260507123610 | 53 | 60 | 1.7 | 5.2 | 0.00 | 0.00 | 0.00 | 67 | 1006.6 |
| 20260507123107 | 53 | 59 | 0.9 | 6.1 | 0.00 | 0.00 | 0.00 | 67 | 1006.6 |
| 20260507122602 | 53 | 134 | 0.0 | 3.5 | 0.00 | 0.00 | 0.00 | 67 | 1006.5 |
| 20260507122058 | 53 | 302 | 3.5 | 5.2 | 0.00 | 0.00 | 0.00 | 66 | 1006.8 |
| 20260507121554 | 52 | 308 | 0.9 | 2.6 | 0.00 | 0.00 | 0.00 | 69 | 1006.7 |
| 20260507121050 | 52 | 65 | 1.7 | 2.6 | 0.00 | 0.00 | 0.00 | 70 | 1006.9 |
| 20260507120546 | 51 | 140 | 0.9 | 3.5 | 0.00 | 0.00 | 0.00 | 71 | 1006.9 |
| 20260507120043 | 51 | 32 | 2.6 | 5.2 | 0.00 | 0.00 | 0.00 | 72 | 1007.1 |
| 20260507115539 | 51 | 70 | 0.0 | 5.2 | 0.00 | 0.00 | 0.00 | 73 | 1007.0 |
| 20260507115035 | 51 | 290 | 3.5 | 5.2 | 0.00 | 0.00 | 0.00 | 75 | 1006.9 |
| 20260507114531 | 50 | 259 | 2.6 | 2.6 | 0.00 | 0.00 | 0.00 | 75 | 1006.8 |
| 20260507114029 | 50 | 43 | 1.7 | 1.7 | 0.00 | 0.00 | 0.00 | 76 | 1006.5 |
| 20260507113526 | 50 | 35 | 1.7 | 2.6 | 0.00 | 0.00 | 0.00 | 75 | 1006.3 |
| 20260507113023 | 50 | 129 | 0.0 | 0.0 | 0.00 | 0.00 | 0.00 | 79 | 1006.8 |
| 20260507112521 | 49 | 120 | 0.0 | 0.0 | 0.00 | 0.00 | 0.00 | 81 | 1006.8 |
| 20260507112017 | 48 | 99 | 0.0 | 0.9 | 0.00 | 0.00 | 0.00 | 83 | 1006.7 |
| 20260507111514 | 48 | 125 | 0.0 | 0.9 | 0.00 | 0.00 | 0.00 | 83 | 1006.8 |
| 20260507111011 | 47 | 129 | 0.9 | 0.9 | 0.00 | 0.00 | 0.00 | 83 | 1006.8 |
| 20260507110508 | 47 | 160 | 0.0 | 0.0 | 0.00 | 0.00 | 0.00 | 83 | 1006.5 |
| 20260507110004 | 47 | 1 | 0.9 | 1.7 | 0.00 | 0.00 | 0.00 | 83 | 1006.5 |
| 20260507105500 | 47 | 125 | 0.9 | 1.7 | 0.00 | 0.00 | 0.00 | 83 | 1006.3 |
| 20260507104957 | 47 | 127 | 0.0 | 1.7 | 0.00 | 0.00 | 0.00 | 83 | 1006.3 |
| 20260507104454 | 47 | 29 | 0.9 | 0.9 | 0.00 | 0.00 | 0.00 | 82 | 1006.3 |
| 20260507103950 | 47 | 238 | 0.0 | 0.0 | 0.00 | 0.00 | 0.00 | 83 | 1006.4 |
| 20260507103447 | 47 | 172 | 0.0 | 0.9 | 0.00 | 0.00 | 0.00 | 84 | 1006.3 |
| 20260507102943 | 47 | 193 | 0.0 | 1.7 | 0.00 | 0.00 | 0.00 | 84 | 1006.3 |
| 20260507102440 | 47 | 162 | 0.0 | 0.0 | 0.00 | 0.00 | 0.00 | 84 | 1006.3 |
| 20260507101936 | 47 | 88 | 0.0 | 0.9 | 0.00 | 0.00 | 0.00 | 84 | 1006.1 |
| 20260507101431 | 47 | 152 | 0.0 | 0.0 | 0.00 | 0.00 | 0.00 | 84 | 1006.2 |
| 20260507100928 | 47 | 177 | 0.0 | 0.9 | 0.00 | 0.00 | 0.00 | 85 | 1006.3 |
| 20260507100426 | 47 | 96 | 0.0 | 0.9 | 0.00 | 0.00 | 0.00 | 84 | 1005.7 |
| 20260507095924 | 47 | 116 | 0.9 | 0.9 | 0.00 | 0.00 | 0.00 | 84 | 1005.7 |
| 20260507095421 | 47 | 147 | 0.0 | 2.6 | 0.00 | 0.00 | 0.00 | 84 | 1006.3 |
| 20260507094918 | 47 | 66 | 0.9 | 0.9 | 0.00 | 0.00 | 0.00 | 84 | 1006.3 |
| 20260507094414 | 47 | 169 | 0.9 | 2.6 | 0.00 | 0.00 | 0.00 | 84 | 1006.3 |
| 20260507093911 | 48 | 248 | 0.9 | 2.6 | 0.00 | 0.00 | 0.00 | 84 | 1006.1 |
| 20260507093409 | 48 | 294 | 3.5 | 3.5 | 0.00 | 0.00 | 0.00 | 84 | 1006.2 |
| 20260507092907 | 48 | 295 | 1.7 | 2.6 | 0.00 | 0.00 | 0.00 | 84 | 1006.2 |
| 20260507092403 | 48 | 139 | 0.0 | 0.9 | 0.00 | 0.00 | 0.00 | 83 | 1006.4 |
| 20260507091900 | 48 | 345 | 2.6 | 3.5 | 0.00 | 0.00 | 0.00 | 82 | 1006.1 |
| 20260507091356 | 48 | 298 | 0.9 | 1.7 | 0.00 | 0.00 | 0.00 | 82 | 1006.4 |
| 20260507090852 | 48 | 220 | 0.9 | 1.7 | 0.00 | 0.00 | 0.00 | 82 | 1006.5 |
| 20260507090348 | 48 | 255 | 1.7 | 2.6 | 0.00 | 0.00 | 0.00 | 81 | 1006.5 |
| 20260507085845 | 48 | 172 | 0.9 | 1.7 | 0.00 | 0.00 | 0.00 | 80 | 1006.5 |
| 20260507085342 | 48 | 153 | 0.0 | 0.9 | 0.00 | 0.00 | 0.00 | 80 | 1006.4 |
| 20260507084840 | 48 | 122 | 0.0 | 0.0 | 0.00 | 0.00 | 0.00 | 80 | 1006.2 |
| 20260507084335 | 48 | 32 | 0.9 | 3.5 | 0.00 | 0.00 | 0.00 | 79 | 1006.1 |
| 20260507083833 | 48 | 233 | 1.7 | 3.5 | 0.00 | 0.00 | 0.00 | 81 | 1006.1 |
| 20260507083330 | 48 | 170 | 1.7 | 1.7 | 0.00 | 0.00 | 0.00 | 82 | 1006.1 |
| 20260507082826 | 48 | 170 | 0.9 | 1.7 | 0.00 | 0.00 | 0.00 | 82 | 1005.9 |
| 20260507082321 | 48 | 144 | 0.0 | 1.7 | 0.00 | 0.00 | 0.00 | 83 | 1006.0 |
| 20260507081819 | 48 | 315 | 1.7 | 2.6 | 0.00 | 0.00 | 0.00 | 82 | 1005.7 |
| 20260507081315 | 48 | 185 | 0.9 | 1.7 | 0.00 | 0.00 | 0.00 | 82 | 1005.6 |
| 20260507080812 | 48 | 317 | 0.9 | 1.7 | 0.00 | 0.00 | 0.00 | 82 | 1005.7 |
| 20260507080308 | 49 | 149 | 0.9 | 6.1 | 0.00 | 0.00 | 0.00 | 82 | 1005.5 |
| 20260507075803 | 49 | 133 | 0.9 | 2.6 | 0.00 | 0.00 | 0.00 | 81 | 1005.4 |
| 20260507075259 | 49 | 314 | 1.7 | 2.6 | 0.00 | 0.00 | 0.00 | 81 | 1006.0 |
| 20260507074756 | 49 | 249 | 1.7 | 3.5 | 0.00 | 0.00 | 0.00 | 81 | 1006.2 |
| 20260507074254 | 49 | 144 | 0.0 | 1.7 | 0.00 | 0.00 | 0.00 | 81 | 1006.1 |
| 20260507073751 | 49 | 204 | 0.0 | 2.6 | 0.00 | 0.00 | 0.00 | 80 | 1005.9 |
| 20260507073247 | 49 | 328 | 2.6 | 3.5 | 0.00 | 0.00 | 0.00 | 80 | 1005.7 |
| 20260507072745 | 49 | 15 | 5.2 | 8.7 | 0.00 | 0.00 | 0.00 | 80 | 1005.9 |
| 20260507072242 | 49 | 241 | 0.0 | 1.7 | 0.00 | 0.00 | 0.00 | 81 | 1005.3 |
| 20260507071740 | 49 | 164 | 0.9 | 5.2 | 0.00 | 0.00 | 0.00 | 80 | 1005.3 |
| 20260507071236 | 49 | 301 | 2.6 | 7.0 | 0.00 | 0.00 | 0.00 | 81 | 1005.2 |
| 20260507070733 | 49 | 215 | 0.9 | 3.5 | 0.00 | 0.00 | 0.00 | 82 | 1005.5 |
| 20260507070230 | 49 | 214 | 0.9 | 1.7 | 0.00 | 0.00 | 0.00 | 83 | 1005.4 |
| 20260507065726 | 49 | 349 | 1.7 | 1.7 | 0.00 | 0.00 | 0.00 | 84 | 1005.4 |
| 20260507065223 | 49 | 345 | 1.7 | 7.0 | 0.00 | 0.00 | 0.00 | 85 | 1005.4 |
| 20260507064720 | 49 | 203 | 1.7 | 7.8 | 0.00 | 0.00 | 0.00 | 86 | 1005.2 |
| 20260507064220 | 49 | 306 | 3.5 | 5.2 | 0.00 | 0.00 | 0.00 | 87 | 1005.2 |
| 20260507063716 | 49 | 197 | 0.9 | 1.7 | 0.00 | 0.00 | 0.00 | 87 | 1005.4 |
| 20260507063213 | 49 | 85 | 0.0 | 1.7 | 0.00 | 0.00 | 0.00 | 87 | 1005.3 |
| 20260507062710 | 49 | 107 | 0.0 | 0.0 | 0.00 | 0.00 | 0.00 | 86 | 1005.1 |
| 20260507062208 | 50 | 84 | 0.9 | 1.7 | 0.00 | 0.00 | 0.00 | 86 | 1005.3 |
| 20260507061705 | 50 | 18 | 0.0 | 0.9 | 0.00 | 0.00 | 0.00 | 86 | 1005.4 |
| 20260507061203 | 50 | 212 | 0.9 | 2.6 | 0.00 | 0.00 | 0.00 | 85 | 1005.6 |
| 20260507060701 | 50 | 326 | 0.9 | 1.7 | 0.00 | 0.00 | 0.00 | 85 | 1005.3 |
| 20260507060157 | 50 | 308 | 0.9 | 1.7 | 0.00 | 0.00 | 0.00 | 85 | 1005.4 |
| 20260507055653 | 50 | 357 | 0.9 | 0.9 | 0.00 | 0.00 | 0.00 | 85 | 1005.5 |
| 20260507055149 | 50 | 149 | 0.0 | 1.7 | 0.00 | 0.00 | 0.00 | 85 | 1005.7 |
| 20260507054645 | 50 | 341 | 1.7 | 2.6 | 0.00 | 0.00 | 0.00 | 85 | 1006.1 |
| 20260507054142 | 50 | 327 | 1.7 | 2.6 | 0.00 | 0.00 | 0.00 | 85 | 1005.6 |
| 20260507053640 | 50 | 251 | 0.9 | 3.5 | 0.00 | 0.00 | 0.00 | 85 | 1005.4 |
| 20260507053138 | 50 | 264 | 2.6 | 6.1 | 0.00 | 0.00 | 0.00 | 85 | 1005.4 |
| 20260507052636 | 50 | 294 | 2.6 | 3.5 | 0.00 | 0.00 | 0.00 | 86 | 1005.5 |
| 20260507052132 | 50 | 259 | 2.6 | 2.6 | 0.00 | 0.00 | 0.00 | 86 | 1005.9 |
| 20260507051630 | 50 | 183 | 0.9 | 3.5 | 0.00 | 0.00 | 0.00 | 86 | 1005.7 |
| 20260507051126 | 50 | 307 | 3.5 | 6.1 | 0.00 | 0.00 | 0.00 | 87 | 1005.7 |
| 20260507050623 | 50 | 295 | 2.6 | 5.2 | 0.00 | 0.00 | 0.00 | 87 | 1005.9 |
| 20260507050120 | 50 | 298 | 1.7 | 2.6 | 0.00 | 0.00 | 0.00 | 87 | 1005.4 |
| 20260507045617 | 50 | 240 | 1.7 | 2.6 | 0.00 | 0.00 | 0.00 | 87 | 1005.2 |
| 20260507045114 | 50 | 199 | 3.5 | 6.1 | 0.00 | 0.00 | 0.00 | 86 | 1005.3 |
| 20260507044610 | 50 | 319 | 2.6 | 3.5 | 0.00 | 0.00 | 0.00 | 87 | 1005.3 |
| 20260507044108 | 51 | 252 | 2.6 | 3.5 | 0.00 | 0.00 | 0.00 | 88 | 1005.6 |
| 20260507043603 | 51 | 109 | 0.0 | 1.7 | 0.00 | 0.00 | 0.00 | 88 | 1005.4 |
| 20260507043100 | 51 | 269 | 5.2 | 7.0 | 0.00 | 0.00 | 0.00 | 88 | 1005.7 |
| 20260507042556 | 51 | 70 | 0.9 | 2.6 | 0.00 | 0.00 | 0.00 | 89 | 1005.9 |
| 20260507042052 | 51 | 312 | 1.7 | 6.1 | 0.00 | 0.00 | 0.00 | 90 | 1006.0 |
| 20260507041549 | 51 | 107 | 0.9 | 1.7 | 0.00 | 0.00 | 0.00 | 90 | 1005.7 |
| 20260507041046 | 51 | 141 | 0.0 | 0.9 | 0.00 | 0.00 | 0.00 | 90 | 1005.6 |
| 20260507040542 | 51 | 271 | 2.6 | 3.5 | 0.00 | 0.00 | 0.00 | 90 | 1005.3 |
| 20260507040039 | 51 | 266 | 2.6 | 3.5 | 0.00 | 0.20 | 0.20 | 90 | 1005.5 |
| 20260507035535 | 52 | 76 | 0.9 | 2.6 | 0.00 | 0.20 | 0.20 | 90 | 1005.4 |
| 20260507035031 | 52 | 242 | 2.6 | 3.5 | 0.00 | 0.20 | 0.20 | 90 | 1005.4 |
| 20260507034528 | 52 | 117 | 0.0 | 1.7 | 0.00 | 0.20 | 0.20 | 90 | 1005.5 |
| 20260507034026 | 52 | 69 | 0.9 | 3.5 | 0.00 | 0.20 | 0.20 | 91 | 1005.2 |
| 20260507033524 | 52 | 282 | 2.6 | 3.5 | 0.00 | 0.20 | 0.20 | 91 | 1005.2 |
| 20260507033021 | 53 | 330 | 2.6 | 5.2 | 0.00 | 0.20 | 0.20 | 92 | 1005.3 |
| 20260507032518 | 53 | 323 | 3.5 | 5.2 | 0.00 | 0.20 | 0.20 | 92 | 1005.2 |
| 20260507032014 | 53 | 38 | 0.9 | 1.7 | 0.00 | 0.20 | 0.20 | 92 | 1005.2 |
| 20260507031510 | 54 | 126 | 0.9 | 2.6 | 0.00 | 0.20 | 0.20 | 92 | 1005.1 |
| 20260507031008 | 54 | 307 | 1.7 | 3.5 | 0.05 | 0.20 | 0.20 | 91 | 1004.8 |
| 20260507030504 | 55 | 273 | 3.5 | 6.1 | 0.05 | 0.20 | 0.20 | 91 | 1004.7 |
| 20260507030002 | 56 | 274 | 7.8 | 8.7 | 0.07 | 0.19 | 0.19 | 91 | 1005.0 |
| 20260507025458 | 56 | 45 | 0.9 | 3.5 | 0.00 | 0.18 | 0.18 | 91 | 1004.9 |
| 20260507024956 | 56 | 324 | 2.6 | 2.6 | 0.00 | 0.18 | 0.18 | 92 | 1005.1 |
| 20260507024453 | 57 | 304 | 5.2 | 7.8 | 0.00 | 0.18 | 0.18 | 92 | 1005.1 |
| 20260507023949 | 57 | 75 | 0.9 | 3.5 | 0.05 | 0.18 | 0.18 | 93 | 1004.7 |
| 20260507023446 | 57 | 302 | 4.3 | 6.1 | 0.05 | 0.18 | 0.18 | 93 | 1004.6 |
| 20260507022943 | 58 | 10 | 1.7 | 3.5 | 0.00 | 0.17 | 0.17 | 94 | 1004.5 |
| 20260507022441 | 58 | 295 | 2.6 | 3.5 | 0.00 | 0.17 | 0.17 | 94 | 1004.4 |
| 20260507021936 | 59 | 66 | 0.9 | 1.7 | 0.00 | 0.17 | 0.17 | 94 | 1004.1 |
| 20260507021431 | 59 | 302 | 1.7 | 2.6 | 0.00 | 0.17 | 0.17 | 95 | 1003.9 |
| 20260507020929 | 59 | 337 | 1.7 | 2.6 | 0.00 | 0.17 | 0.17 | 95 | 1004.0 |
| 20260507020426 | 59 | 260 | 1.7 | 3.5 | 0.00 | 0.17 | 0.17 | 95 | 1004.0 |
| 20260507015923 | 59 | 145 | 1.7 | 3.5 | 0.00 | 0.17 | 0.17 | 94 | 1003.7 |
| 20260507015421 | 59 | 112 | 0.0 | 1.7 | 0.00 | 0.17 | 0.17 | 94 | 1003.9 |
| 20260507014918 | 59 | 155 | 0.0 | 0.9 | 0.00 | 0.17 | 0.17 | 94 | 1003.7 |
| 20260507014414 | 59 | 164 | 0.9 | 2.6 | 0.00 | 0.17 | 0.17 | 94 | 1003.6 |
| 20260507013910 | 59 | 199 | 0.9 | 2.6 | 0.00 | 0.17 | 0.17 | 94 | 1003.7 |
| 20260507013408 | 59 | 43 | 1.7 | 2.6 | 0.00 | 0.17 | 0.17 | 94 | 1003.8 |
| 20260507012905 | 59 | 99 | 1.7 | 2.6 | 0.00 | 0.17 | 0.17 | 94 | 1003.6 |
| 20260507012401 | 59 | 207 | 0.0 | 1.7 | 0.00 | 0.17 | 0.17 | 94 | 1003.9 |
| 20260507011859 | 59 | 213 | 0.9 | 2.6 | 0.00 | 0.17 | 0.17 | 94 | 1003.6 |
| 20260507011355 | 59 | 164 | 0.0 | 0.9 | 0.00 | 0.17 | 0.17 | 94 | 1003.8 |
| 20260507010855 | 59 | 186 | 0.9 | 2.6 | 0.00 | 0.17 | 0.17 | 94 | 1003.6 |
| 20260507010351 | 59 | 172 | 0.0 | 0.9 | 0.00 | 0.17 | 0.17 | 94 | 1003.8 |
| 20260507005848 | 59 | 134 | 0.0 | 1.7 | 0.00 | 0.17 | 0.17 | 94 | 1003.7 |
| 20260507005345 | 59 | 188 | 0.9 | 1.7 | 0.00 | 0.17 | 0.17 | 94 | 1003.8 |
| 20260507004842 | 59 | 194 | 2.6 | 3.5 | 0.00 | 0.17 | 0.17 | 94 | 1003.7 |
| 20260507004339 | 59 | 116 | 0.9 | 1.7 | 0.00 | 0.17 | 0.17 | 94 | 1003.7 |
| 20260507003836 | 59 | 141 | 0.0 | 0.9 | 0.00 | 0.17 | 0.17 | 94 | 1003.5 |
| 20260507003331 | 59 | 77 | 1.7 | 2.6 | 0.00 | 0.17 | 0.17 | 94 | 1003.5 |
| 20260507002826 | 59 | 124 | 0.0 | 0.9 | 0.00 | 0.17 | 0.17 | 94 | 1003.6 |
| 20260507002323 | 59 | 181 | 0.9 | 2.6 | 0.00 | 0.17 | 0.17 | 94 | 1003.6 |
| 20260507001820 | 59 | 225 | 0.9 | 2.6 | 0.00 | 0.17 | 0.17 | 94 | 1003.5 |
| 20260507001317 | 59 | 120 | 0.0 | 1.7 | 0.00 | 0.17 | 0.17 | 94 | 1003.5 |
| 20260507000813 | 59 | 59 | 0.9 | 0.9 | 0.00 | 0.17 | 0.17 | 94 | 1003.3 |
| 20260507000309 | 59 | 153 | 3.5 | 5.2 | 0.00 | 0.17 | 0.17 | 94 | 1003.2 |
| 20260506235806 | 59 | 210 | 3.5 | 6.1 | 0.00 | 0.17 | 0.17 | 94 | 1003.2 |
| 20260506235306 | 59 | 129 | 0.0 | 5.2 | 0.00 | 0.17 | 0.17 | 94 | 1002.9 |
| 20260506234759 | 59 | 144 | 0.9 | 5.2 | 0.00 | 0.17 | 0.17 | 94 | 1003.2 |
| 20260506234256 | 59 | 170 | 2.6 | 2.6 | 0.00 | 0.17 | 0.17 | 94 | 1003.3 |
| 20260506233754 | 59 | 218 | 2.6 | 3.5 | 0.00 | 0.17 | 0.17 | 94 | 1003.2 |
| 20260506233250 | 60 | 187 | 0.9 | 5.2 | 0.00 | 0.17 | 0.17 | 94 | 1003.2 |
| 20260506232747 | 59 | 162 | 2.6 | 3.5 | 0.00 | 0.17 | 0.17 | 94 | 1003.3 |
| 20260506232241 | 60 | 203 | 3.5 | 6.1 | 0.00 | 0.17 | 0.17 | 93 | 1003.4 |
| 20260506231739 | 60 | 234 | 5.2 | 7.0 | 0.00 | 0.17 | 0.17 | 93 | 1003.4 |
| 20260506231238 | 60 | 143 | 0.9 | 2.6 | 0.00 | 0.17 | 0.17 | 93 | 1003.3 |
| 20260506230734 | 60 | 173 | 0.0 | 3.5 | 0.00 | 0.17 | 0.17 | 93 | 1003.3 |
| 20260506230231 | 60 | 133 | 0.9 | 1.7 | 0.00 | 0.17 | 0.17 | 93 | 1003.4 |
| 20260506225727 | 60 | 157 | 0.9 | 2.6 | 0.00 | 0.17 | 0.17 | 93 | 1003.5 |
| 20260506225225 | 60 | 218 | 1.7 | 2.6 | 0.00 | 0.17 | 0.17 | 93 | 1003.7 |
| 20260506224721 | 60 | 166 | 0.9 | 3.5 | 0.00 | 0.17 | 0.17 | 93 | 1003.5 |
| 20260506224218 | 60 | 173 | 0.9 | 5.2 | 0.00 | 0.17 | 0.17 | 93 | 1003.4 |
| 20260506223714 | 60 | 142 | 0.0 | 3.5 | 0.00 | 0.17 | 0.17 | 93 | 1003.7 |
| 20260506223210 | 60 | 169 | 0.9 | 5.2 | 0.00 | 0.17 | 0.17 | 93 | 1003.5 |
| 20260506222707 | 60 | 217 | 0.9 | 2.6 | 0.00 | 0.17 | 0.17 | 93 | 1003.5 |
| 20260506222202 | 60 | 170 | 3.5 | 6.1 | 0.00 | 0.17 | 0.17 | 93 | 1003.6 |
| 20260506221701 | 60 | 48 | 1.7 | 5.2 | 0.00 | 0.17 | 0.17 | 93 | 1003.6 |
| 20260506221159 | 60 | 116 | 1.7 | 3.5 | 0.00 | 0.17 | 0.17 | 93 | 1003.7 |
| 20260506220655 | 60 | 115 | 0.9 | 6.1 | 0.00 | 0.17 | 0.17 | 93 | 1003.9 |
| 20260506220150 | 60 | 188 | 2.6 | 3.5 | 0.00 | 0.17 | 0.17 | 94 | 1003.8 |
| 20260506215647 | 60 | 118 | 1.7 | 5.2 | 0.07 | 0.17 | 0.17 | 93 | 1003.8 |
| 20260506215142 | 60 | 176 | 2.6 | 3.5 | 0.07 | 0.17 | 0.17 | 93 | 1003.7 |
| 20260506214639 | 60 | 115 | 0.9 | 3.5 | 0.00 | 0.16 | 0.16 | 93 | 1003.9 |
| 20260506214137 | 60 | 150 | 1.7 | 2.6 | 0.00 | 0.16 | 0.16 | 93 | 1003.9 |
| 20260506213635 | 60 | 125 | 3.5 | 7.8 | 0.00 | 0.16 | 0.16 | 93 | 1003.8 |
| 20260506213132 | 60 | 202 | 5.2 | 6.1 | 0.00 | 0.16 | 0.16 | 93 | 1003.9 |
| 20260506212629 | 60 | 94 | 1.7 | 2.6 | 0.00 | 0.16 | 0.16 | 93 | 1003.9 |
| 20260506212124 | 60 | 194 | 1.7 | 5.2 | 0.05 | 0.16 | 0.16 | 92 | 1003.8 |
| 20260506211620 | 60 | 82 | 1.7 | 6.1 | 0.05 | 0.16 | 0.16 | 92 | 1003.9 |
| 20260506211117 | 60 | 156 | 1.7 | 3.5 | 0.07 | 0.15 | 0.15 | 92 | 1004.1 |
| 20260506210614 | 61 | 209 | 1.7 | 8.7 | 0.07 | 0.15 | 0.15 | 92 | 1004.0 |
| 20260506210110 | 61 | 202 | 4.3 | 8.7 | 0.00 | 0.14 | 0.14 | 92 | 1004.2 |
| 20260506205607 | 61 | 65 | 0.9 | 2.6 | 0.00 | 0.14 | 0.14 | 92 | 1004.1 |
| 20260506205102 | 61 | 170 | 4.3 | 6.1 | 0.00 | 0.14 | 0.14 | 92 | 1004.2 |
| 20260506204600 | 61 | 176 | 1.7 | 5.2 | 0.00 | 0.14 | 0.14 | 92 | 1004.1 |
| 20260506204057 | 61 | 216 | 0.9 | 7.0 | 0.05 | 0.14 | 0.14 | 91 | 1004.4 |
| 20260506203555 | 61 | 129 | 0.0 | 3.5 | 0.05 | 0.14 | 0.14 | 91 | 1004.3 |
| 20260506203051 | 61 | 93 | 2.6 | 5.2 | 0.00 | 0.13 | 0.13 | 91 | 1004.2 |
| 20260506202549 | 62 | 198 | 3.5 | 5.2 | 0.00 | 0.13 | 0.13 | 91 | 1004.3 |
| 20260506202045 | 62 | 130 | 1.7 | 1.7 | 0.00 | 0.13 | 0.13 | 92 | 1004.3 |
| 20260506201543 | 62 | 187 | 1.7 | 3.5 | 0.00 | 0.13 | 0.13 | 91 | 1004.2 |
| 20260506201040 | 62 | 214 | 1.7 | 3.5 | 0.00 | 0.13 | 0.13 | 91 | 1004.4 |
| 20260506200536 | 62 | 152 | 1.7 | 2.6 | 0.07 | 0.13 | 0.13 | 91 | 1004.3 |
| 20260506200033 | 62 | 121 | 0.9 | 2.6 | 0.12 | 0.13 | 0.13 | 90 | 1004.5 |
| 20260506195529 | 62 | 146 | 0.0 | 1.7 | 0.05 | 0.12 | 0.12 | 90 | 1004.5 |
| 20260506195026 | 62 | 178 | 0.0 | 0.9 | 0.00 | 0.11 | 0.11 | 89 | 1004.7 |
| 20260506194524 | 62 | 259 | 0.9 | 2.6 | 0.00 | 0.11 | 0.11 | 89 | 1004.6 |
| 20260506194020 | 62 | 223 | 3.5 | 6.1 | 0.00 | 0.11 | 0.11 | 89 | 1004.6 |
| 20260506193517 | 62 | 143 | 0.9 | 2.6 | 0.00 | 0.11 | 0.11 | 89 | 1004.6 |
| 20260506193014 | 62 | 144 | 0.0 | 2.6 | 0.00 | 0.11 | 0.11 | 90 | 1004.4 |
| 20260506192511 | 62 | 199 | 2.6 | 3.5 | 0.00 | 0.11 | 0.11 | 90 | 1004.4 |
| 20260506192007 | 62 | 178 | 0.0 | 0.9 | 0.00 | 0.11 | 0.11 | 91 | 1004.4 |
| 20260506191504 | 62 | 105 | 0.0 | 1.7 | 0.00 | 0.11 | 0.11 | 91 | 1004.2 |
| 20260506191000 | 62 | 170 | 0.0 | 0.9 | 0.00 | 0.11 | 0.11 | 90 | 1004.2 |
| 20260506190457 | 62 | 84 | 0.0 | 0.9 | 0.00 | 0.11 | 0.11 | 90 | 1004.6 |
| 20260506185954 | 62 | 139 | 0.0 | 0.9 | 0.07 | 0.11 | 0.11 | 89 | 1004.5 |
| 20260506185451 | 62 | 112 | 0.0 | 0.0 | 0.07 | 0.11 | 0.11 | 89 | 1004.5 |
| 20260506184948 | 62 | 106 | 0.0 | 0.9 | 0.07 | 0.10 | 0.10 | 89 | 1004.7 |
| 20260506184445 | 62 | 165 | 0.0 | 3.5 | 0.07 | 0.10 | 0.10 | 88 | 1004.7 |
| 20260506183942 | 62 | 95 | 0.0 | 0.0 | 0.05 | 0.09 | 0.09 | 88 | 1005.0 |
| 20260506183437 | 63 | 172 | 1.7 | 2.6 | 0.07 | 0.08 | 0.08 | 87 | 1005.1 |
| 20260506182935 | 63 | 128 | 0.9 | 1.7 | 0.12 | 0.08 | 0.08 | 87 | 1005.1 |
| 20260506182432 | 63 | 148 | 0.0 | 0.9 | 0.05 | 0.07 | 0.07 | 86 | 1005.1 |
| 20260506181929 | 63 | 125 | 0.0 | 0.0 | 0.07 | 0.06 | 0.06 | 86 | 1005.4 |
| 20260506181427 | 63 | 159 | 0.0 | 0.9 | 0.12 | 0.06 | 0.06 | 84 | 1005.4 |
| 20260506180924 | 64 | 117 | 0.9 | 1.7 | 0.12 | 0.05 | 0.05 | 83 | 1005.4 |
| 20260506180420 | 64 | 295 | 0.9 | 1.7 | 0.12 | 0.04 | 0.04 | 81 | 1005.4 |
| 20260506175917 | 64 | 130 | 0.9 | 0.9 | 0.12 | 0.03 | 0.03 | 79 | 1005.5 |
| 20260506175414 | 65 | 302 | 0.9 | 1.7 | 0.07 | 0.02 | 0.02 | 76 | 1005.6 |
| 20260506174910 | 66 | 148 | 0.9 | 3.5 | 0.05 | 0.01 | 0.01 | 74 | 1005.7 |
| 20260506174408 | 68 | 262 | 1.7 | 7.0 | 0.00 | 0.00 | 0.00 | 69 | 1005.7 |
| 20260506173905 | 68 | 125 | 0.9 | 5.2 | 0.00 | 0.00 | 0.00 | 66 | 1005.5 |
| 20260506173402 | 69 | 138 | 1.7 | 12.2 | 0.00 | 0.00 | 0.00 | 62 | 1005.2 |
| 20260506172859 | 70 | 6 | 1.7 | 5.2 | 0.00 | 0.00 | 0.00 | 61 | 1005.3 |
| 20260506172355 | 70 | 260 | 1.7 | 5.2 | 0.00 | 0.00 | 0.00 | 61 | 1005.1 |
| 20260506171853 | 71 | 93 | 2.6 | 3.5 | 0.00 | 0.00 | 0.00 | 59 | 1005.0 |
| 20260506171350 | 71 | 78 | 0.9 | 7.0 | 0.00 | 0.00 | 0.00 | 58 | 1005.0 |
| 20260506170847 | 71 | 76 | 0.9 | 3.5 | 0.00 | 0.00 | 0.00 | 59 | 1005.1 |
| 20260506170343 | 71 | 89 | 1.7 | 3.5 | 0.00 | 0.00 | 0.00 | 59 | 1004.9 |
| 20260506165837 | 70 | 207 | 1.7 | 2.6 | 0.00 | 0.00 | 0.00 | 61 | 1005.1 |
| 20260506165334 | 70 | 155 | 0.9 | 2.6 | 0.00 | 0.00 | 0.00 | 61 | 1005.3 |
| 20260506164830 | 70 | 237 | 5.2 | 7.0 | 0.00 | 0.00 | 0.00 | 60 | 1005.2 |
| 20260506164327 | 71 | 202 | 6.1 | 8.7 | 0.00 | 0.00 | 0.00 | 59 | 1005.4 |
| 20260506163825 | 70 | 160 | 0.9 | 2.6 | 0.00 | 0.00 | 0.00 | 60 | 1005.3 |
| 20260506163319 | 71 | 182 | 5.2 | 7.8 | 0.00 | 0.00 | 0.00 | 60 | 1005.4 |
| 20260506162815 | 70 | 134 | 0.9 | 7.0 | 0.00 | 0.00 | 0.00 | 60 | 1005.4 |
| 20260506162313 | 70 | 118 | 0.0 | 1.7 | 0.00 | 0.00 | 0.00 | 61 | 1005.5 |
| 20260506161805 | 70 | 209 | 1.7 | 3.5 | 0.00 | 0.00 | 0.00 | 61 | 1005.5 |
| 20260506161302 | 71 | 166 | 2.6 | 7.0 | 0.00 | 0.00 | 0.00 | 60 | 1005.6 |
| 20260506160759 | 70 | 186 | 0.9 | 6.1 | 0.00 | 0.00 | 0.00 | 62 | 1006.0 |
| 20260506160256 | 70 | 89 | 1.7 | 7.8 | 0.00 | 0.00 | 0.00 | 61 | 1006.1 |
| 20260506155755 | 70 | 121 | 5.2 | 7.8 | 0.00 | 0.00 | 0.00 | 62 | 1006.3 |
| 20260506155251 | 69 | 121 | 3.5 | 6.1 | 0.00 | 0.00 | 0.00 | 62 | 1006.5 |
| 20260506153358 | 69 | 92 | 0.0 | 3.5 | 0.00 | 0.00 | 0.00 | 64 | 1006.7 |
| 20260506152855 | 69 | 160 | 0.9 | 7.0 | 0.00 | 0.00 | 0.00 | 64 | 1006.8 |
| 20260506152352 | 69 | 48 | 1.7 | 5.2 | 0.00 | 0.00 | 0.00 | 64 | 1006.9 |
| 20260506151850 | 69 | 120 | 0.9 | 7.0 | 0.00 | 0.00 | 0.00 | 65 | 1006.9 |
| 20260506151347 | 69 | 207 | 2.6 | 6.1 | 0.00 | 0.00 | 0.00 | 64 | 1007.0 |
| 20260506150844 | 69 | 237 | 2.6 | 5.2 | 0.00 | 0.00 | 0.00 | 65 | 1007.1 |